TIME,DELAY(SENSOR),PRES,T(CTD),SAL,OXYGEN,RAWTEMP,T(OPTODE),TCPHASE,TURBIDITY,TURBIDITY_GAIN,FLUOR,BETA,CDOM,ED411.5,ED443.8,ED489.6,PAR,COMP,TILT,TILTY(TILT),CHECK
1341316607,6466,261.5799865722656000,4.5938000679016110,34.9384994506835940,347.2383117675781000,770.5217895507812000,4.5672798156738280,34.3780899047851560,16,3,50,105,64,2147248804,2147560227,2147571350,2147362810,2703,0,-12,43883
1341316668,6468,258.3699951171875000,4.6016001701354980,34.9379005432128900,347.4401855468750000,770.2871093750000000,4.5755310058593750,34.3664093017578100,16,3,51,108,64,2147246116,2147560214,2147569421,2147361851,2312,0,-12,2901
1341316729,6468,255.1699981689453000,4.6064000129699710,34.9375991821289060,347.9067077636719000,770.2150268554688000,4.5780620574951170,34.3490180969238300,111,3,50,109,64,2147245169,2147559661,2147571725,2147363798,1897,0,-12,62392
1341316793,6465,251.7500000000000000,4.6219000816345215,34.9388008117675800,348.1509094238281000,769.8052978515625000,4.5924611091613770,34.3324508666992200,16,3,52,109,64,2147248676,2147557604,2147569709,2147361366,1552,0,-12,11144
1341316854,6467,248.4499969482422000,4.6230998039245605,34.9380989074707000,348.3091125488281000,769.6928100585938000,4.5964150428771970,34.3250312805175800,16,3,52,111,64,2147248013,2147558285,2147568589,2147363281,1102,0,-12,14062
1341316916,6467,245.0800018310547000,4.6353998184204100,34.9382019042968750,348.5862121582031000,769.3945922851562000,4.6068921089172360,34.3095092773437500,16,3,52,102,64,2147245078,2147556877,2147573251,2147361325,461,0,-12,42297
1341316977,6464,241.7700042724609400,4.6624999046325680,34.9407997131347660,348.5278930664062500,768.6370849609375000,4.6334972381591800,34.2964286804199200,16,3,50,107,64,2147248241,2147555944,2147570289,2147362811,74,0,-12,3421
1341317038,6465,238.5399932861328000,4.6771001815795900,34.9425010681152340,348.3340148925781000,768.2247924804688000,4.6479778289794920,34.2946891784668000,16,3,50,106,65,2147248150,2147557741,2147571770,2147360054,3039,0,-12,32938
1341317099,6468,235.3000030517578000,4.6524000167846680,34.9380989074707000,348.6437072753906000,768.8704223632812000,4.6253027915954590,34.2968482971191400,16,3,51,105,64,2147248438,2147556475,2147571780,2147361924,2617,0,-12,58155
1341317160,6468,232.1199951171875000,4.6329998970031740,34.9343986511230500,349.3143920898437500,769.3607788085938000,4.6080780029296875,34.2840690612793000,16,3,52,113,64,2147246385,2147559464,2147569507,2147363913,2303,0,-12,13584
1341317224,6465,228.7799987792968800,4.6112999916076660,34.9306983947753900,350.1062927246094000,769.9453125000000000,4.5875430107116700,34.2691688537597660,16,3,52,110,66,2147246344,2147557046,2147572296,2147362404,1950,0,-12,37526
1341317285,6468,225.6799926757812500,4.5998001098632810,34.9273986816406250,350.5598144531250000,770.2595825195312000,4.5764961242675780,34.2598915100097660,16,3,52,106,64,2147246636,2147557407,2147569567,2147359629,1538,0,-12,63596
1341317349,6468,222.4199981689453000,4.6156997680664060,34.9267997741699200,350.9903869628906000,769.9055175781250000,4.5889401435852050,34.2385711669921900,27,3,52,105,64,2147248352,2147557663,2147572104,2147363177,1177,0,-10,25660
1341317410,6468,219.3999938964843800,4.6222000122070310,34.9275016784668000,351.0916137695312500,769.7872924804688000,4.5930938720703125,34.2324714660644500,10,3,53,111,64,2147248315,2147558760,2147571757,2147359784,656,0,-12,19990
1341317474,6464,216.1900024414062500,4.6168999671936035,34.9249000549316400,351.4360961914062500,769.9003906250000000,4.5891189575195310,34.2231407165527340,16,3,54,106,64,2147245265,2147559926,2147570249,2147360845,32,0,-12,17003
1341317536,6468,213.0399932861328000,4.6203999519348145,34.9243011474609400,351.6394042968750000,769.8060302734375000,4.5924382209777830,34.2144088745117200,16,3,55,106,64,2147246189,2147557110,2147570619,2147360876,3256,0,-12,37692
1341317600,6468,209.8699951171875000,4.6273999214172360,34.9239997863769500,351.8165893554687500,769.6649780273438000,4.5973892211914060,34.2058486938476560,16,3,56,106,64,2147247835,2147557087,2147570568,2147358628,2752,0,-12,29647
1341317661,6468,206.9299926757812500,4.6384000778198240,34.9244003295898440,351.7031860351562500,769.3087158203125000,4.6099090576171875,34.2023506164550800,16,3,57,110,64,2147245750,2147554509,2147570646,2147360858,2429,0,-12,24696
1341317725,6468,203.8899993896484400,4.6381001472473145,34.9229011535644500,352.0573120117187500,769.2871704101562000,4.6106619834899900,34.1899795532226560,16,3,55,110,64,2147245101,2147559103,2147570203,2147364717,2091,0,-12,24672
1341317786,6503,200.9600067138672000,4.6434001922607420,34.9247016906738300,352.3984985351562500,769.0203857421875000,4.6200351715087890,34.1731681823730500,16,3,56,118,64,2147243514,2147557220,2147570623,2147362390,1744,0,-12,2975
1341317850,6467,197.9299926757812500,4.6679000854492190,34.9247016906738300,352.3187866210937500,768.5540161132812000,4.6364169120788570,34.1665992736816400,16,3,58,111,64,2147243204,2147559807,2147569992,2147363688,1445,0,-12,54930
1341317911,6467,195.0700073242187500,4.6708998680114750,34.9250984191894500,352.2143859863281000,768.3483276367188000,4.6436419486999510,34.1658897399902340,16,3,58,108,64,2147244063,2147555789,2147568443,2147362326,1165,0,-12,61114
1341317975,6467,192.1799926757812500,4.6831002235412600,34.9268989562988300,352.1354980468750000,768.0363159179688000,4.6545982360839840,34.1625289916992200,16,3,56,111,64,2147244982,2147557718,2147573137,2147359034,823,0,-12,44684
1341318036,6467,189.4100036621093800,4.6897997856140140,34.9272003173828100,352.1733093261719000,767.8637695312500000,4.6606521606445310,34.1576385498046900,16,3,58,109,63,2147247894,2147559935,2147571707,2147360233,283,0,-12,41852
1341318100,6467,186.5700073242187500,4.7003998756408690,34.9275016784668000,352.1057128906250000,767.6036987304688000,4.6697850227355960,34.1548881530761700,16,3,56,105,64,2147245796,2147558751,2147573183,2147361316,3323,0,-12,11992
1341318162,6468,183.8600006103515600,4.7007999420166020,34.9254989624023440,352.3226928710937500,767.5117187500000000,4.6730117797851560,34.1454010009765600,16,3,57,108,66,2147249841,2147555391,2147574115,2147357910,2859,0,-12,35916
1341318226,6468,181.0399932861328000,4.6999001502990720,34.9253997802734400,353.0021972656250000,767.5203857421875000,4.6727089881896970,34.1230010986328100,16,3,57,111,64,2147240200,2147556434,2147571491,2147359661,2776,0,-12,36148
1341318287,6468,178.4199981689453000,4.7122001647949220,34.9238014221191400,353.4887084960937500,767.2130126953125000,4.6834998130798340,34.1006507873535160,15,3,58,118,65,2147245563,2147557682,2147574147,2147358691,2545,0,-12,64853
1341318351,6468,175.7799987792968800,4.7115001678466800,34.9230995178222660,353.9735107421875000,767.2042846679688000,4.6838040351867680,34.0842590332031250,16,3,58,121,64,2147246870,2147555625,2147574897,2147360456,2117,0,-12,20887
1341318412,6468,173.3099975585937500,4.7179999351501465,34.9221992492675800,354.2673034667969000,767.0018920898438000,4.6909079551696780,34.0703392028808600,16,3,58,110,64,2147243195,2147558468,2147574001,2147361466,1898,0,-12,60054
1341318476,6466,170.7400054931640600,4.7342000007629395,34.9222984313964840,354.5130920410156000,766.6077880859375000,4.7047348022460940,34.0544700622558600,16,3,60,122,65,2147243574,2147556731,2147574723,2147360804,1650,0,-12,12590
1341318537,6467,168.2899932861328000,4.7534999847412110,34.9225997924804700,354.3497924804687500,766.0277709960938000,4.7250881195068360,34.0480995178222660,16,3,59,112,64,2147245260,2147555881,2147574632,2147360255,1359,0,-11,30880
1341318601,6468,165.6699981689453000,4.7628002166748050,34.9234008789062500,354.4440917968750000,765.7944946289062000,4.7332711219787600,34.0405311584472660,16,3,60,115,64,2147245247,2147556841,2147572969,2147360863,896,0,-12,29846
1341318662,6469,163.1999969482422000,4.7667999267578125,34.9231986999511700,354.6614990234375000,765.6436157226562000,4.7385649681091310,34.0304603576660160,16,3,59,118,64,2147247890,2147556347,2147573782,2147361910,606,0,-12,37497
1341318726,6466,160.6799926757812500,4.7887997627258300,34.9229011535644500,354.8049926757812500,765.0982055664062000,4.7576899528503420,34.0147018432617200,16,3,61,118,64,2147247729,2147554902,2147574249,2147361585,126,0,-12,60349
1341318788,6469,158.2899932861328000,4.7926001548767090,34.9230003356933600,355.0387878417969000,764.9301147460938000,4.7635860443115230,34.0033607482910160,16,3,59,123,64,2147243341,2147554436,2147575007,2147359062,3075,0,-12,54904
1341318879,6467,154.0200042724609400,4.8140997886657715,34.9219017028808600,355.4837951660156000,764.2954101562500000,4.7858371734619140,33.9759712219238300,15,3,62,121,63,2147247135,2147556246,2147576054,2147361425,2595,0,-12,29678
1341318940,6468,150.2899932861328000,4.8276000022888180,34.9226989746093750,355.9053955078125000,763.9193115234375000,4.7990207672119140,33.9548606872558600,16,3,61,122,64,2147247693,2147555894,2147576845,2147365078,2106,0,-12,3839
1341319004,6504,146.4499969482422000,4.8456997871398930,34.9197998046875000,356.4523010253906000,763.4506835937500000,4.8154411315917970,33.9274597167968750,72,3,63,126,64,2147249417,2147559848,2147576932,2147359355,1767,0,-12,3613
1341319065,6467,142.8600006103515600,4.8653001785278320,34.9171981811523440,357.2669067382812500,762.9116210937500000,4.8343300819396970,33.8896217346191400,21,3,62,125,64,2147244342,2147557805,2147576378,2147362815,1562,0,-12,33040
1341319129,6467,139.0800018310547000,4.8744997978210450,34.9178009033203100,357.9408874511719000,762.5806274414062000,4.8459258079528810,33.8609008789062500,16,3,62,123,64,2147244433,2147557737,2147577883,2147361339,1208,0,-12,56871
1341319190,6468,135.4199981689453000,4.8980998992919920,34.9177017211914060,358.3725891113281000,762.1655883789062000,4.8604621887207030,33.8387298583984400,20,3,63,120,64,2147244872,2147556996,2147578925,2147362546,818,0,-12,38557
1341319254,6468,131.5800018310547000,4.9340000152587890,34.9160995483398440,358.7297058105469000,760.9600830078125000,4.9026679992675780,33.8033714294433600,16,3,64,134,66,2147246633,2147559002,2147579350,2147362528,3545,0,-12,13113
1341319315,6469,127.9700012207031200,4.9415998458862305,34.9155998229980500,359.3526000976562500,760.6290893554688000,4.9142551422119140,33.7762184143066400,16,3,65,134,63,2147246770,2147557485,2147580173,2147365265,3112,0,-12,45714
1341319379,6469,124.3199996948242200,4.9727001190185550,34.9137992858886700,359.6882934570312500,759.8394775390625000,4.9418830871582030,33.7498397827148440,16,3,68,145,64,2147245974,2147554943,2147581888,2147364598,2864,0,-11,31803
1341319441,6467,120.8700027465820300,4.9899001121521000,34.9154014587402340,360.1767883300781000,759.2114257812500000,4.9638562202453610,33.7215499877929700,15,3,67,138,64,2147246207,2147558601,2147579300,2147361855,2267,0,-12,22152
1341319505,6466,117.3499984741211000,5.0173997879028320,34.9145011901855500,360.3078918457031000,758.4420166015625000,4.9907650947570800,33.7019615173339840,16,3,66,134,64,2147243945,2147561164,2147582710,2147362755,1920,0,-12,7424
1341319566,6468,114.0999984741211000,5.0693998336791990,34.9152984619140600,360.3501892089844000,757.0593872070312000,5.0390930175781250,33.6736602783203100,19,3,68,131,65,2147245864,2147558317,2147587281,2147362536,1511,0,-12,116
1341319630,6467,110.7399978637695300,5.1118001937866210,34.9127998352050800,360.9476928710937500,755.7982177734375000,5.0831570625305180,33.6292381286621100,24,3,70,135,64,2147247213,2147559510,2147586180,2147363305,1055,0,-12,22596
1341319691,6468,107.5699996948242200,5.1448001861572270,34.9090003967285160,361.3275146484375000,754.9382934570312000,5.1131820678710940,33.6004600524902340,14,3,75,157,64,2147248941,2147557805,2147587944,2147363638,862,0,-12,40311
1341319755,6468,104.2900009155273400,5.1859002113342285,34.9067993164062500,361.9219055175781000,753.7797241210938000,5.1536250114440920,33.5583190917968750,15,3,74,148,64,2147244050,2147559099,2147591162,2147366866,379,0,-12,40918
1341319816,6468,101.1299972534179700,5.1904997825622560,34.9030990600585940,362.8142089843750000,753.4058227539062000,5.1666722297668460,33.5224494934082000,15,3,75,144,64,2147243057,2147561129,2147595954,2147366733,3358,0,-12,30749
1341319880,6468,97.9000015258789000,5.2164001464843750,34.9025993347168000,363.4567871093750000,752.8497924804688000,5.1860680580139160,33.4909706115722660,16,3,77,144,65,2147244488,2147561138,2147600393,2147369064,2872,0,-12,50714
1341319941,6468,94.8300018310546900,5.2216000556945800,34.8978004455566400,363.9848937988281000,752.5360717773438000,5.1970100402832030,33.4677200317382800,18,3,78,147,64,2147248589,2147559857,2147609960,2147367158,2408,0,-12,59303
1341320005,6468,91.7399978637695300,5.2534999847412110,34.8973007202148440,364.5115051269531000,751.7354736328125000,5.2249279022216800,33.4354705810546900,17,3,80,155,65,2147247588,2147563286,2147620635,2147372204,1845,0,-12,12431
1341320067,6465,88.8000030517578100,5.2856001853942870,34.8968009948730500,364.9219055175781000,750.9489135742188000,5.2523460388183590,33.4069595336914060,16,3,85,157,64,2147247272,2147563789,2147632877,2147374783,1686,0,-12,49979
1341320131,6469,85.8899993896484400,5.3315000534057620,34.8967018127441400,365.1509094238281000,749.6054077148438000,5.2991638183593750,33.3737487792968750,15,3,90,156,64,2147247798,2147569302,2147650143,2147379798,1259,0,-12,7361
1341320192,6470,83.1999969482421900,5.3899002075195310,34.8964996337890600,365.6588134765625000,747.9259033203125000,5.3576450347900390,33.3253593444824200,17,3,98,159,64,2147243378,2147569069,2147665659,2147380118,926,0,-12,17238
1341320256,6470,80.3899993896484400,5.4461998939514160,34.8988990783691400,366.0053100585937500,746.4855957031250000,5.4077677726745605,33.2864418029785160,16,3,104,177,65,2147249032,2147570619,2147682939,2147386829,223,0,-12,8200
1341320317,6468,77.6999969482421900,5.7067999839782715,34.9297981262207000,363.3543090820312500,739.8369750976562000,5.6387410163879395,33.2441291809082000,18,3,115,163,64,2147249700,2147574340,2147704772,2147391615,3209,0,-12,46615
1341320381,6470,74.9599990844726600,5.5953998565673830,34.9108009338378900,364.5479125976562500,741.8143920898438000,5.5701122283935550,33.2437782287597660,21,3,131,183,65,2147248575,2147581851,2147724525,2147395633,2731,0,-12,49555
1341320442,6468,72.3700027465820300,5.7374000549316410,34.9227981567382800,364.0228881835937500,738.3635253906250000,5.6898460388183590,33.1948089599609400,32,3,140,184,65,2147250486,2147581188,2147737796,2147399505,2193,0,-12,45679
1341320506,6469,69.5699996948242200,5.7262997627258300,34.9203987121582000,364.3447875976562500,738.2855224609375000,5.6925468444824220,33.1831283569335940,20,3,145,193,65,2147249974,2147585644,2147758175,2147406477,1896,0,-12,57785
1341320567,6468,66.8499984741211000,5.7449002265930180,34.9113998413085940,364.4731140136719000,737.2769775390625000,5.7275028228759770,33.1597290039062500,21,3,160,220,64,2147252630,2147591629,2147774020,2147411017,1336,0,-12,9322
1341320631,6470,64.0899963378906200,5.8596000671386720,34.9189987182617200,364.3931884765625000,734.6994018554688000,5.8167819976806640,33.1138191223144500,22,3,162,217,65,2147254938,2147599711,2147796571,2147414477,1039,0,-12,34695
1341320693,6470,61.4199981689453100,5.9284000396728520,34.9133987426757800,364.2507019042969000,732.5316162109375000,5.8917942047119140,33.0772209167480500,23,3,165,216,66,2147256443,2147602134,2147805408,2147420603,719,0,-12,20468
1341320757,6470,58.6399993896484400,6.0422000885009770,34.9171981811523440,364.6842041015625000,729.3524780273438000,6.0016751289367680,33.0041084289550800,28,3,199,240,66,2147264740,2147614668,2147834751,2147429846,615,0,-12,27214
1341320818,6470,55.9000015258789060,6.1654000282287600,34.9207992553710940,365.3721008300781000,727.1301879882812000,6.0784020423889160,32.9405708312988300,29,3,219,306,64,2147270623,2147630847,2147909608,2147454906,3216,0,-12,21286
1341320882,6469,52.9000015258789060,6.3747000694274900,34.9389991760253900,365.9071960449219000,719.2927246093750000,6.3484458923339840,32.7786102294921900,39,3,248,402,64,2147290148,2147669695,2148050628,2147497339,2948,0,-12,63354
1341320943,6470,49.9300003051757800,6.5907001495361330,34.9434013366699200,367.0726928710937500,715.8518066406250000,6.4667301177978520,32.6784706115722660,40,3,290,322,66,2147330884,2147747273,2148329074,2147585736,2215,0,-11,42127
1341321007,6469,46.7900009155273440,6.8385000228881840,34.9654006958007800,365.1950988769531000,706.4154052734375000,6.7902870178222660,32.5661010742187500,45,3,310,361,66,2147414998,2147895839,2148811916,2147743762,2145,0,-12,41317
1341321068,6470,43.9099998474121100,7.2165999412536620,34.9832000732421900,363.4526062011719000,696.0139770507812000,7.1455378532409670,32.4343490600585940,96,3,320,520,66,2147546440,2148109672,2149475524,2147970564,2183,0,-10,27573
1341321132,6505,41.2700004577636700,7.4046998023986820,34.9802017211914060,363.5436096191406000,690.6237182617188000,7.3290729522705080,32.3356895446777340,101,3,397,545,65,2148116781,2149111743,2152695410,2149056863,1819,0,-11,46531
1341321193,6505,39.1699981689453100,7.5275001525878910,34.9824981689453100,364.7955932617187500,686.0822143554688000,7.4834160804748535,32.2161293029785160,80,3,444,597,64,2147983167,2148780644,2151292827,2148605723,1811,0,-12,35761
1341321284,6469,35.6599998474121100,7.6705999374389650,34.9790000915527340,366.9796142578125000,681.3065795898438000,7.6454238891601560,32.0642509460449200,89,3,541,727,66,2149257019,2150643839,2156142431,2150364873,1602,0,-10,33477
1341321346,6469,32.1800003051757800,7.8680000305175780,34.9794006347656250,370.8981018066406000,675.3997192382812000,7.8454017639160160,31.8409500122070300,135,3,655,931,64,2150125992,2151557156,2157191821,2150820378,1150,0,-12,58370
1341321410,6470,28.5499992370605470,8.0663995742797850,34.9760017395019500,380.5479125976562500,669.8314819335938000,8.0335140228271480,31.4539909362792970,114,3,732,821,66,2151768602,2153379770,2159881705,2151909347,1034,1,-10,47359
1341321471,6470,25.4300003051757800,8.1831998825073240,34.9664001464843750,388.6169128417969000,666.1588745117188000,8.1573762893676760,31.1550102233886720,107,3,721,762,64,2154745037,2156646106,2164651112,2153843436,870,0,-12,55001
1341321535,6471,22.4699993133544920,8.5641002655029300,34.9715003967285160,394.9577941894531000,656.0947875976562000,8.4959373474121100,30.8048496246337900,107,3,695,820,64,2159146472,2161313480,2170892694,2156426107,386,0,-12,39350
1341321596,6469,19.8999996185302730,8.9393997192382810,34.9706993103027340,400.5405883789062500,645.3284301757812000,8.8567752838134770,30.4710903167724600,108,3,646,719,64,2166149385,2168873512,2180956648,2160660186,3135,2,-10,35123
1341321660,6469,17.7199993133544920,9.4611997604370120,34.9715995788574200,404.8602905273437500,629.2471923828125000,9.3932037353515620,30.0925102233886720,99,3,579,663,62,2176273069,2179880283,2195211414,2166846020,2165,0,-12,53437
1341321721,6471,16.2700004577636720,10.1188001632690430,34.9584007263183600,400.7084960937500000,610.3854980468750000,10.0186595916748050,29.9081993103027340,95,3,476,630,62,2186160836,2190961828,2209911053,2173366047,1630,0,-10,36701
1341321824,6470,14.1700000762939450,10.9763002395629880,34.9776992797851560,379.9830932617187500,583.5590209960938000,10.9016599655151370,30.0783195495605470,82,3,369,559,59,2211869713,2219681425,2244849311,2189725248,367,0,-10,14039
1341321886,6469,11.9200000762939450,10.9944000244140620,34.9840011596679700,373.1680908203125000,581.0164794921875000,10.9849596023559570,30.2392005920410160,77,3,304,531,62,2222248008,2229938614,2252121910,2194646208,3377,-1,-10,39938
1341321966,6468,8.4099998474121100,11.2388000488281250,34.9793014526367200,366.8646850585937500,573.7429809570312000,11.2229204177856450,30.3163700103759770,85,3,185,570,58,2265512662,2275766952,2298837645,2222966906,2881,2,-12,59454
1341322030,6468,5.3099999427795410,11.7793998718261720,34.9850997924804700,359.6976928710937500,556.7025756835938000,11.7784204483032230,30.2763500213623050,76,3,144,479,58,2302921293,2314871099,2335347112,2252866043,3215,3,-10,25826
1341322080,6470,3.0599999427795410,11.8885002136230470,34.9875984191894500,356.9979858398437500,552.5466918945312000,11.9134798049926760,30.2972393035888670,75,3,120,425,57,2359432552,2375284598,2394763446,2310543976,2866,8,-12,9010
1341322128,6468,1.9099999666213990,0.0000000000000000,0.0000000000000000,356.3540039062500000,550.9047241210938000,11.9668102264404300,30.2927703857421880,75,3,105,416,60,2397164301,2418873979,2437513325,2356410934,359,18,-17,9894
